�������l�o���
Date,Time,MP-1(��Sv/h),MP-2(��Sv/h),MP-3(��Sv/h),MP-4(��Sv/h),MP-5(��Sv/h),MP-6(��Sv/h),MP-7(��Sv/h),MP-8(��Sv/h),����,����(m/s),���J
2021/06/07,00:00,0.620,0.915,0.583,1.110,0.793,0.373,0.642,0.600,���k��,4.3,��
2021/06/07,00:10,0.621,0.915,0.582,1.109,0.796,0.372,0.642,0.601,���k��,2.0,��
2021/06/07,00:20,0.622,0.914,0.583,1.109,0.795,0.372,0.642,0.599,���k��,3.5,��
2021/06/07,00:30,0.620,0.913,0.581,1.109,0.796,0.372,0.641,0.600,���k��,4.5,��
2021/06/07,00:40,0.622,0.915,0.583,1.110,0.793,0.371,0.642,0.601,���k��,5.7,��
2021/06/07,00:50,0.621,0.915,0.581,1.109,0.795,0.371,0.641,0.603,���k��,5.7,��
2021/06/07,01:00,0.621,0.913,0.583,1.109,0.797,0.372,0.643,0.598,���k��,5.4,��
2021/06/07,01:10,0.621,0.914,0.581,1.109,0.796,0.371,0.643,0.600,���k��,3.6,��
2021/06/07,01:20,0.621,0.914,0.581,1.111,0.795,0.372,0.643,0.599,��,1.5,��
2021/06/07,01:30,0.621,0.915,0.581,1.110,0.795,0.370,0.642,0.600,��,1.5,��
2021/06/07,01:40,0.621,0.915,0.583,1.111,0.795,0.371,0.643,0.602,�k��,1.4,��
2021/06/07,01:50,0.622,0.913,0.582,1.111,0.796,0.370,0.643,0.601,�k��,2.9,��
2021/06/07,02:00,0.622,0.914,0.581,1.110,0.795,0.371,0.642,0.600,�k��,3.5,��
2021/06/07,02:10,0.621,0.914,0.582,1.110,0.795,0.371,0.643,0.600,�k��,3.2,��
2021/06/07,02:20,0.621,0.916,0.581,1.112,0.796,0.369,0.642,0.600,���k��,3.7,��
2021/06/07,02:30,0.620,0.914,0.581,1.111,0.794,0.370,0.640,0.600,���k��,2.6,��
2021/06/07,02:40,0.619,0.916,0.584,1.113,0.795,0.373,0.643,0.602,���k��,2.2,��
2021/06/07,02:50,0.620,0.914,0.583,1.113,0.796,0.371,0.643,0.599,�k��,3.0,��
2021/06/07,03:00,0.621,0.915,0.581,1.109,0.794,0.372,0.643,0.600,�k��,2.6,��
2021/06/07,03:10,0.620,0.913,0.581,1.109,0.794,0.372,0.643,0.600,�k��,2.0,��
2021/06/07,03:20,0.622,0.912,0.584,1.111,0.795,0.370,0.642,0.600,�k��,4.4,��
2021/06/07,03:30,0.620,0.913,0.580,1.108,0.796,0.372,0.642,0.601,���k��,6.2,��
2021/06/07,03:40,0.619,0.913,0.583,1.113,0.796,0.370,0.642,0.601,���k��,6.4,��
2021/06/07,03:50,0.619,0.916,0.583,1.112,0.797,0.372,0.643,0.600,���k��,5.3,��
2021/06/07,04:00,0.619,0.915,0.582,1.108,0.795,0.372,0.642,0.601,�k��,3.0,��
2021/06/07,04:10,0.620,0.914,0.581,1.111,0.794,0.372,0.643,0.601,�k��,2.5,��
2021/06/07,04:20,0.619,0.915,0.581,1.111,0.795,0.372,0.643,0.601,�k��,2.6,��
2021/06/07,04:30,0.619,0.914,0.582,1.113,0.795,0.369,0.639,0.602,�k��,2.8,��
2021/06/07,04:40,0.619,0.912,0.583,1.114,0.792,0.370,0.642,0.599,���k��,2.3,��
2021/06/07,04:50,0.621,0.917,0.582,1.110,0.795,0.370,0.641,0.601,�k��,2.3,��
2021/06/07,05:00,0.619,0.914,0.581,1.113,0.797,0.370,0.640,0.602,�k��,1.9,��
2021/06/07,05:10,0.620,0.914,0.582,1.110,0.795,0.371,0.640,0.600,���k��,1.5,��
2021/06/07,05:20,0.620,0.914,0.583,1.112,0.797,0.371,0.642,0.600,�k��,1.4,��
2021/06/07,05:30,0.620,0.914,0.582,1.111,0.797,0.369,0.642,0.600,���k��,1.7,��
2021/06/07,05:40,0.620,0.914,0.581,1.114,0.796,0.370,0.642,0.601,�k��,2.0,��
2021/06/07,05:50,0.619,0.915,0.583,1.111,0.796,0.370,0.641,0.600,���k��,2.5,��
2021/06/07,06:00,0.622,0.916,0.582,1.112,0.795,0.370,0.641,0.600,���k��,3.0,��
2021/06/07,06:10,0.621,0.914,0.582,1.112,0.795,0.371,0.642,0.599,���k��,2.9,��
2021/06/07,06:20,0.620,0.916,0.583,1.111,0.795,0.370,0.639,0.602,�k��,2.0,��
2021/06/07,06:30,0.618,0.915,0.582,1.112,0.797,0.370,0.643,0.600,�k�k��,1.2,��
2021/06/07,06:40,0.620,0.917,0.581,1.112,0.797,0.370,0.641,0.601,�k,0.9,��
2021/06/07,06:50,0.619,0.913,0.582,1.112,0.795,0.369,0.640,0.599,�k�k��,0.9,��
2021/06/07,07:00,0.621,0.914,0.583,1.112,0.797,0.369,0.642,0.601,�k��,0.8,��
2021/06/07,07:10,0.620,0.914,0.581,1.112,0.794,0.370,0.640,0.601,���k��,0.8,��
2021/06/07,07:20,0.620,0.917,0.583,1.111,0.796,0.368,0.642,0.601,�k��,0.9,��
2021/06/07,07:30,0.619,0.919,0.581,1.111,0.796,0.370,0.642,0.600,��,0.8,��
2021/06/07,07:40,0.619,0.915,0.582,1.112,0.797,0.370,0.641,0.601,-,CALM,��
2021/06/07,07:50,0.620,0.915,0.581,1.112,0.796,0.371,0.642,0.600,-,CALM,��
2021/06/07,08:00,0.619,0.915,0.583,1.112,0.796,0.368,0.642,0.601,���쓌,0.9,��
2021/06/07,08:10,0.620,0.914,0.580,1.112,0.795,0.370,0.642,0.600,-,CALM,��
2021/06/07,08:20,0.621,0.914,0.581,1.110,0.793,0.370,0.641,0.599,��,0.6,��
2021/06/07,08:30,0.620,0.914,0.582,1.112,0.794,0.369,0.640,0.599,��쓌,1.5,��
2021/06/07,08:40,0.619,0.912,0.580,1.113,0.795,0.369,0.640,0.598,��쓌,2.0,��
2021/06/07,08:50,0.618,0.909,0.582,1.114,0.795,0.368,0.642,0.598,��,2.3,��
2021/06/07,09:00,0.620,0.912,0.581,1.111,0.794,0.367,0.640,0.599,��쐼,1.9,��
2021/06/07,09:10,0.620,0.911,0.581,1.111,0.795,0.368,0.641,0.601,��,2.3,��
2021/06/07,09:20,0.620,0.911,0.581,1.113,0.794,0.369,0.639,0.598,��,2.0,��
2021/06/07,09:30,0.619,0.912,0.583,1.114,0.793,0.368,0.643,0.599,��,2.0,��
2021/06/07,09:40,0.619,0.910,0.582,1.114,0.795,0.369,0.641,0.598,��쓌,1.9,��
2021/06/07,09:50,0.619,0.911,0.581,1.112,0.796,0.368,0.639,0.600,��,1.7,��
2021/06/07,10:00,0.619,0.912,0.582,1.112,0.795,0.369,0.640,0.599,��,1.7,��
2021/06/07,10:10,0.619,0.914,0.581,1.112,0.794,0.370,0.641,0.600,��,1.7,��
2021/06/07,10:20,0.621,0.913,0.581,1.111,0.795,0.371,0.641,0.599,��,2.3,��
2021/06/07,10:30,0.620,0.910,0.582,1.114,0.796,0.370,0.640,0.599,��,3.1,��
2021/06/07,10:40,0.621,0.910,0.583,1.112,0.795,0.370,0.641,0.598,��,2.5,��
2021/06/07,10:50,0.618,0.913,0.581,1.112,0.795,0.369,0.641,0.600,��,2.5,��
2021/06/07,11:00,0.619,0.911,0.580,1.111,0.795,0.370,0.641,0.599,��쓌,2.8,��
2021/06/07,11:10,0.618,0.914,0.580,1.113,0.793,0.370,0.641,0.597,��쓌,3.2,��
2021/06/07,11:20,0.619,0.913,0.581,1.113,0.795,0.371,0.640,0.598,��쓌,3.6,��
2021/06/07,11:30,0.621,0.914,0.580,1.111,0.795,0.370,0.643,0.599,��쓌,4.7,��
2021/06/07,11:40,0.620,0.914,0.582,1.112,0.795,0.370,0.641,0.600,��쓌,6.0,��
2021/06/07,11:50,0.621,0.913,0.580,1.112,0.798,0.370,0.642,0.599,��,5.9,��
2021/06/07,12:00,0.620,0.916,0.582,1.112,0.796,0.370,0.642,0.600,��,5.2,��
2021/06/07,12:10,0.620,0.916,0.581,1.114,0.796,0.370,0.642,0.601,��,6.2,��
2021/06/07,12:20,0.619,0.918,0.580,1.111,0.798,0.370,0.642,0.599,��,5.5,��
2021/06/07,12:30,0.622,0.921,0.582,1.114,0.796,0.370,0.644,0.599,��,4.6,��
2021/06/07,12:40,0.620,0.918,0.582,1.113,0.798,0.370,0.643,0.600,��,4.9,��
2021/06/07,12:50,0.622,0.918,0.582,1.114,0.799,0.371,0.644,0.600,��,6.7,��
2021/06/07,13:00,0.623,0.916,0.582,1.113,0.797,0.371,0.643,0.600,��,7.4,��
2021/06/07,13:10,0.621,0.916,0.581,1.111,0.798,0.371,0.643,0.599,��,7.4,��
2021/06/07,13:20,0.621,0.917,0.581,1.115,0.799,0.372,0.645,0.600,��쓌,8.7,��
2021/06/07,13:30,0.621,0.915,0.583,1.113,0.800,0.372,0.643,0.600,��쓌,8.0,��
2021/06/07,13:40,0.621,0.915,0.582,1.114,0.800,0.370,0.643,0.600,��쓌,7.9,��
2021/06/07,13:50,0.621,0.915,0.583,1.113,0.799,0.370,0.642,0.599,��쓌,9.0,��
2021/06/07,14:00,0.622,0.917,0.580,1.111,0.798,0.371,0.643,0.601,��쓌,8.5,��
2021/06/07,14:10,0.621,0.917,0.583,1.114,0.800,0.371,0.644,0.600,��쓌,8.2,��
2021/06/07,14:20,0.622,0.917,0.583,1.114,0.800,0.370,0.642,0.599,��쓌,8.6,��
2021/06/07,14:30,0.620,0.918,0.583,1.113,0.799,0.371,0.641,0.599,��쓌,9.4,��
2021/06/07,14:40,0.621,0.915,0.583,1.114,0.800,0.371,0.643,0.600,��,7.4,��
2021/06/07,14:50,0.622,0.919,0.584,1.113,0.800,0.370,0.643,0.600,��,6.7,��
2021/06/07,15:00,0.621,0.916,0.580,1.115,0.799,0.372,0.643,0.601,��쓌,8.8,��
2021/06/07,15:10,0.620,0.917,0.582,1.113,0.799,0.371,0.643,0.600,��쓌,8.7,��
2021/06/07,15:20,0.621,0.920,0.584,1.115,0.800,0.371,0.644,0.601,��쓌,9.2,��
2021/06/07,15:30,0.621,0.919,0.583,1.116,0.799,0.372,0.644,0.602,��,8.0,��
2021/06/07,15:40,0.624,0.919,0.581,1.116,0.800,0.373,0.644,0.600,��,9.0,��
2021/06/07,15:50,0.622,0.920,0.583,1.116,0.799,0.372,0.643,0.601,��,7.7,��
2021/06/07,16:00,0.624,0.918,0.583,1.117,0.801,0.372,0.642,0.601,��,8.7,��
2021/06/07,16:10,0.623,0.918,0.583,1.118,0.802,0.373,0.642,0.600,��쓌,9.7,��
2021/06/07,16:20,0.624,0.919,0.585,1.116,0.802,0.373,0.642,0.602,��,10.3,��
2021/06/07,16:30,0.623,0.919,0.583,1.119,0.801,0.373,0.644,0.600,��,10.2,��
2021/06/07,16:40,0.624,0.921,0.581,1.119,0.801,0.373,0.643,0.602,��,7.7,��
2021/06/07,16:50,0.623,0.919,0.583,1.116,0.801,0.372,0.643,0.600,��,5.0,��
2021/06/07,17:00,0.622,0.920,0.583,1.114,0.799,0.372,0.641,0.600,��,3.5,��
2021/06/07,17:10,0.622,0.921,0.583,1.116,0.803,0.371,0.641,0.600,�쐼,0.6,��
2021/06/07,17:20,0.622,0.921,0.583,1.116,0.799,0.372,0.642,0.600,�k,2.8,��
2021/06/07,17:30,0.621,0.922,0.582,1.119,0.800,0.373,0.643,0.599,�k,0.9,��
2021/06/07,17:40,0.620,0.923,0.583,1.115,0.802,0.373,0.643,0.601,�k,1.4,�L
2021/06/07,17:50,0.620,0.922,0.582,1.118,0.800,0.372,0.642,0.602,�k�k��,2.0,��
2021/06/07,18:00,0.619,0.921,0.584,1.119,0.802,0.372,0.642,0.601,�쓌,2.6,��
2021/06/07,18:10,0.620,0.921,0.581,1.121,0.802,0.373,0.642,0.601,��,3.2,��
2021/06/07,18:20,0.619,0.920,0.583,1.120,0.803,0.372,0.642,0.602,��쐼,2.5,��
2021/06/07,18:30,0.620,0.919,0.582,1.119,0.801,0.372,0.641,0.600,�쐼,3.0,��
2021/06/07,18:40,0.621,0.922,0.584,1.122,0.801,0.372,0.642,0.600,��쐼,2.0,��
2021/06/07,18:50,0.620,0.921,0.585,1.121,0.802,0.372,0.643,0.602,�쐼,1.7,��
2021/06/07,19:00,0.620,0.922,0.583,1.120,0.804,0.374,0.643,0.601,��쐼,2.6,��
2021/06/07,19:10,0.620,0.924,0.586,1.119,0.802,0.373,0.644,0.602,�쐼,4.7,��
2021/06/07,19:20,0.620,0.924,0.585,1.121,0.804,0.373,0.645,0.602,��쐼,3.6,��
2021/06/07,19:30,0.622,0.922,0.584,1.119,0.803,0.374,0.645,0.604,��쐼,3.8,��
2021/06/07,19:40,0.621,0.921,0.586,1.121,0.803,0.373,0.643,0.603,�쐼,2.6,��
2021/06/07,19:50,0.624,0.921,0.586,1.120,0.802,0.374,0.645,0.601,�쐼,1.7,��
2021/06/07,20:00,0.624,0.923,0.586,1.122,0.804,0.375,0.646,0.604,��,2.3,��
2021/06/07,20:10,0.623,0.921,0.585,1.121,0.805,0.373,0.646,0.603,��,3.4,��
2021/06/07,20:20,0.624,0.921,0.586,1.120,0.803,0.373,0.645,0.604,��,3.1,��
2021/06/07,20:30,0.624,0.924,0.585,1.123,0.804,0.371,0.646,0.602,��,2.5,��
2021/06/07,20:40,0.624,0.922,0.585,1.120,0.804,0.374,0.648,0.604,�쐼,2.3,��
2021/06/07,20:50,0.624,0.922,0.585,1.120,0.804,0.373,0.645,0.604,���쐼,2.2,��
2021/06/07,21:00,0.625,0.921,0.586,1.123,0.804,0.373,0.646,0.604,��쐼,1.5,��
2021/06/07,21:10,0.623,0.922,0.584,1.121,0.804,0.372,0.647,0.605,�쐼,1.7,��
2021/06/07,21:20,0.625,0.920,0.585,1.118,0.804,0.374,0.645,0.604,��,0.9,��
2021/06/07,21:30,0.624,0.921,0.585,1.118,0.803,0.373,0.646,0.602,���k��,1.7,��
2021/06/07,21:40,0.625,0.923,0.585,1.121,0.805,0.374,0.645,0.603,���k��,1.7,��
2021/06/07,21:50,0.623,0.921,0.584,1.121,0.806,0.373,0.644,0.604,���k��,2.3,��
2021/06/07,22:00,0.624,0.921,0.584,1.122,0.803,0.373,0.645,0.604,���k��,2.6,��
2021/06/07,22:10,0.624,0.919,0.585,1.122,0.803,0.374,0.645,0.603,�k��,0.6,��
2021/06/07,22:20,0.626,0.919,0.586,1.120,0.804,0.372,0.645,0.603,��,1.1,��
2021/06/07,22:30,0.623,0.922,0.585,1.122,0.805,0.375,0.644,0.603,-,CALM,��
2021/06/07,22:40,0.625,0.921,0.587,1.123,0.805,0.375,0.644,0.602,��쐼,0.8,��
2021/06/07,22:50,0.625,0.921,0.585,1.122,0.803,0.375,0.645,0.604,��,0.9,��
2021/06/07,23:00,0.626,0.920,0.586,1.121,0.805,0.372,0.644,0.603,-,CALM,��
2021/06/07,23:10,0.624,0.921,0.584,1.120,0.805,0.373,0.645,0.603,���k��,0.8,��
2021/06/07,23:20,0.625,0.920,0.584,1.120,0.805,0.374,0.645,0.601,��,0.9,��
2021/06/07,23:30,0.624,0.921,0.586,1.120,0.803,0.373,0.644,0.603,���k��,0.6,��
2021/06/07,23:40,0.622,0.920,0.585,1.121,0.804,0.373,0.645,0.603,��,0.9,��
2021/06/07,23:50,0.625,0.920,0.582,1.122,0.803,0.374,0.646,0.603,���쓌,1.5,��
